Regional Weather Roundup
Issued by NWS

Home | Current Version | Previous Version | Graphics & Text | Print | Product List | Glossary On
Versions: 1 2 3 4 5 6 7 8 9 10 11 12 13 14 15 16 17 18 19 20 21 22 23 24 25 26 27 28 29 30 31 32 33 34 35 36 37 38 39 40 41 42 43 44 45 46 47 48 49 50
000
ASUS43 KTOP 242359
RWRKS

WEATHER ROUNDUP FOR KANSAS
NATIONAL WEATHER SERVICE GOODLAND KS
700 PM CDT SUN JUL 24 2016

NOTE:  "FAIR" INDICATES FEW OR NO CLOUDS BELOW 12,000 FEET WITH NO
SIGNIFICANT WEATHER AND/OR OBSTRUCTIONS TO VISIBILITY.

KSZ001>006-013>018-027>032-041>047-250100-
NORTHWEST KANSAS

CITY           SKY/WX    TMP DP  RH WIND       PRES   REMARKS
GOODLAND       LGT RAIN  88  61  40 E17       30.05S
6HR MIN TEMP:  87; 6HR MAX TEMP:  92; 6HR PCP: TRACE;

HAYS           SUNNY     88  64  45 E20       29.98S
HILL CITY      SUNNY     86  63  45 E16       30.00F
6HR MIN TEMP:  85; 6HR MAX TEMP:  91;

RUSSELL        SUNNY     87  69  54 NE18      29.96F
6HR MIN TEMP:  86; 6HR MAX TEMP:  95;

$$

KSZ061>065-074>080-084>089-250100-
SOUTHWEST KANSAS

CITY           SKY/WX    TMP DP  RH WIND       PRES   REMARKS
DODGE CITY     CLOUDY    94  64  37 SE8       29.95F HX  95
6HR MIN TEMP:  88; 6HR MAX TEMP:  96;

ELKHART          N/A     92  59  33 NE6         N/A
GARDEN CITY    CLOUDY    92  64  39 E8        29.96F
6HR MIN TEMP:  89; 6HR MAX TEMP:  94;

GREAT BEND     SUNNY     90  68  48 NE22G29   29.94R
LIBERAL        CLOUDY    97  63  32 E9        29.97S HX  98
$$

KSZ066>073-081>083-090>101-250100-
SOUTHEAST KANSAS

CITY           SKY/WX    TMP DP  RH WIND       PRES   REMARKS
CHANUTE        SUNNY     91  78  65 SE5       29.91F HX 106
6HR MIN TEMP:  91; 6HR MAX TEMP:  97;

COFFEYVILLE    SUNNY     99  69  37 S7        29.89F HX 105
6HR MIN TEMP:  96; 6HR MAX TEMP: 101;

HUTCHINSON     SUNNY     96  71  44 E9        29.91S HX 103
6HR MIN TEMP:  90; 6HR MAX TEMP:  98;

NEWTON         SUNNY     94  72  48 E8        29.93S HX 102
PARSONS        SUNNY     97  75  49 CALM      29.92S HX 109
6HR MIN TEMP:  95; 6HR MAX TEMP: 100;

WICHITA INTL   MOSUNNY   98  69  38 SE9       29.89S HX 104
6HR MIN TEMP:  96; 6HR MAX TEMP: 101; 6HR PCP: TRACE;

WICHITA JABRA  SUNNY     94  75  54 E8        29.90F HX 105
6HR MIN TEMP:  91; 6HR MAX TEMP:  97;

WINFIELD       PTSUNNY   97  70  41 SE12      29.90S HX 103
6HR MIN TEMP:  97; 6HR MAX TEMP: 103;

$$

KSZ007>012-019>026-033>040-048>060-102>105-250100-
NORTHEAST KANSAS

CITY           SKY/WX    TMP DP  RH WIND       PRES   REMARKS
CONCORDIA      SUNNY     79  65  62 E8        30.00S
6HR MIN TEMP:  78; 6HR MAX TEMP:  83; 6HR PCP: TRACE;

EMPORIA        SUNNY     93  74  53 NE13      29.92F HX 103
6HR MIN TEMP:  93; 6HR MAX TEMP: 100;

LAWRENCE       CLOUDY    87  78  74 N6        29.94S HX 100
6HR MIN TEMP:  86; 6HR MAX TEMP:  95;

MANHATTAN      LGT RAIN  86  71  60 NE14      29.95F
6HR MIN TEMP:  85; 6HR MAX TEMP:  92; 6HR PCP: TRACE;

OLATHE IND     CLOUDY    88  77  69 N12       29.95S HX 100
6HR MIN TEMP:  88; 6HR MAX TEMP:  96;

OLATHE EXE     CLOUDY    89  75  63 N9        29.95R HX  99
6HR MIN TEMP:  89; 6HR MAX TEMP:  95;

SALINA         SUNNY     89  71  55 NE13      29.94S HX  95
6HR MIN TEMP:  89; 6HR MAX TEMP:  97;

TOPEKA BILLARD CLOUDY    84  77  79 N14G22    29.94F
6HR MIN TEMP:  84; 6HR MAX TEMP:  94;

TOPEKA FORBES  CLOUDY    89  77  67 NE12      29.95S HX 101
6HR MIN TEMP:  89; 6HR MAX TEMP:  96;

$$



USA.gov is the U.S. government's official web portal to all federal, state and local government web resources and services.